Flag for Bermuda Weather past 2 weeks in Hamilton, Bermuda

Now
70 °F

Partly sunny.


Feels Like: 70 °F
Forecast: 63 / 70 °F
Wind: 5 mph from Southeast

Location: Bermuda

Current Time: Dec 22, 2014 at 2:10:03 PM

Latest Report: Dec 22, 2014 at 12:55 PM


Visibility: N/A

Pressure: 30.18 "Hg

Humidity: 73%

Dew point: 61 °F

Location of HamiltonLocation

Historic Weather in Hamilton — Graph

°F

Hamilton temperature yesterday

Maximum temperature yesterday: 70 °F (at 10:55 AM)
Minimum temperature yesterday: 64 °F (at 4:55 PM)
Average temperature yesterday: 66 °F

Past Weeks' High & Low Weather Summary

 TemperatureHumidityPressure
High75 °F (Dec 7, 1:55 PM)100% (Dec 10, 8:55 AM)30.24 "Hg (Dec 10, 8:55 AM)
Low61 °F (Dec 14, 5:59 PM)46% (Dec 16, 2:55 PM)29.68 "Hg (Dec 10, 1:55 PM)
Average68 °F71%29.98 "Hg
* Reported Dec 7 12:55 PM — Dec 22 12:55 PM, Hamilton, Weather by CustomWeather, © 2014

Note: Actual official high and low records may vary slightly from our data, if they occured in-between our weather recording intervals... More about our weather records

Advertising

Hamilton weather history for previous 24 hours

 ConditionsComfort  
Time TempWeatherWind HumidityBarometerVisibility
12:55 PM
Dec 22
70 °FPartly sunny.5 mph73%30.18 "HgN/A
11:55 AM72 °FBroken clouds.6 mph69%30.18 "HgN/A
10:55 AM72 °FBroken clouds.6 mph69%30.21 "HgN/A
9:55 AM70 °FPartly sunny.5 mph69%30.24 "HgN/A
8:55 AM66 °FPartly sunny.3 mph88%30.21 "HgN/A
7:55 AM63 °FPartly sunny.No wind88%30.21 "HgN/A
6:55 AM61 °FPassing clouds.3 mph94%30.18 "HgN/A
5:55 AM63 °FPartly cloudy.No wind88%30.18 "HgN/A
4:55 AM63 °FPartly cloudy.5 mph88%30.18 "HgN/A
3:55 AM63 °FPassing clouds.2 mph88%30.18 "HgN/A
2:55 AM61 °FPassing clouds.2 mph88%30.21 "HgN/A
1:55 AM63 °FPassing clouds.5 mph83%30.21 "HgN/A
12:55 AM64 °FPassing clouds.No wind83%30.18 "HgN/A
11:55 PM
Dec 21
64 °FPartly cloudy.No wind83%30.21 "HgN/A
10:55 PM64 °FSprinkles. Overcast.5 mph83%30.24 "HgN/A
9:55 PM64 °FMostly cloudy.2 mph83%30.21 "HgN/A
8:55 PM64 °FPassing clouds.3 mph83%30.21 "HgN/A
7:55 PM64 °FPartly cloudy.2 mph83%30.21 "HgN/A
6:55 PM64 °FPartly cloudy.2 mph78%30.18 "HgN/A
5:55 PM66 °FDrizzle. Overcast.3 mph73%30.18 "HgN/A
4:55 PM64 °FCloudy.3 mph78%30.18 "HgN/A
3:55 PM66 °FLight rain. Mostly cloudy.8 mph73%30.15 "HgN/A
2:55 PM66 °FSprinkles. Cloudy.8 mph68%30.18 "HgN/A
Weather by CustomWeather, © 2014

See weather overviewHow to use our weather pages